TimeMST,TemperatureF,Dew PointF,Humidity,Sea Level PressureIn,VisibilityMPH,Wind Direction,Wind SpeedMPH,Gust SpeedMPH,PrecipitationIn,Events,Conditions,WindDirDegrees,DateUTC
12:15 AM,69.8,69.8,100,29.90,0.8,East,5.8,-,N/A,,Clear,80,2012-11-09 07:15:00
12:51 AM,69.8,69.8,100,29.89,0.8,NNE,6.9,-,N/A,,Clear,30,2012-11-09 07:51:00
1:51 AM,69.8,69.8,100,29.88,0.8,North,8.1,-,N/A,,Clear,10,2012-11-09 08:51:00
2:43 AM,69.8,69.8,100,29.88,0.2,NNE,6.9,-,N/A,Fog,Fog,30,2012-11-09 09:43:00
3:20 AM,69.8,69.8,100,29.87,0.1,North,6.9,-,N/A,Fog,Fog,10,2012-11-09 10:20:00
3:51 AM,69.8,68.0,94,29.88,0.1,NNE,6.9,-,N/A,Fog,Fog,30,2012-11-09 10:51:00
4:46 AM,69.8,69.8,100,29.88,0.1,NNE,5.8,-,N/A,Fog,Fog,20,2012-11-09 11:46:00
5:41 AM,69.8,69.8,100,29.89,0.0,NNE,6.9,-,N/A,Fog,Fog,20,2012-11-09 12:41:00
6:35 AM,69.8,69.8,100,29.90,0.2,North,6.9,-,N/A,Fog,Fog,10,2012-11-09 13:35:00
6:45 AM,69.8,69.8,100,29.90,0.5,North,6.9,-,N/A,Fog,Fog,10,2012-11-09 13:45:00
7:04 AM,69.8,69.8,100,29.90,0.8,NNE,6.9,-,N/A,,Scattered Clouds,20,2012-11-09 14:04:00
7:42 AM,71.6,69.8,94,29.91,0.9,North,8.1,-,N/A,,Partly Cloudy,360,2012-11-09 14:42:00
8:03 AM,71.6,69.8,94,29.91,1.0,NNE,8.1,-,N/A,,Partly Cloudy,20,2012-11-09 15:03:00
8:31 AM,73.4,71.6,94,29.91,5.0,NNE,5.8,-,N/A,,Clear,20,2012-11-09 15:31:00
8:46 AM,73.4,71.6,94,29.91,7.0,NNE,6.9,-,N/A,,Clear,30,2012-11-09 15:46:00
9:42 AM,80.6,71.6,74,29.91,10.0,NE,5.8,-,N/A,,Partly Cloudy,50,2012-11-09 16:42:00
10:41 AM,82.4,69.8,66,29.90,10.0,NNW,3.5,-,N/A,,Partly Cloudy,330,2012-11-09 17:41:00
11:47 AM,86.0,71.6,62,29.87,10.0,WSW,8.1,-,N/A,,Clear,240,2012-11-09 18:47:00
12:41 PM,84.2,71.6,66,29.85,12.0,South,10.4,-,N/A,,Clear,190,2012-11-09 19:41:00
1:44 PM,84.2,71.6,66,29.82,12.0,SW,9.2,-,N/A,,Clear,220,2012-11-09 20:44:00
2:48 PM,84.2,71.6,66,29.81,11.0,SW,9.2,-,N/A,,Partly Cloudy,220,2012-11-09 21:48:00
3:51 PM,82.4,71.6,70,29.80,11.0,West,9.2,-,N/A,,Scattered Clouds,270,2012-11-09 22:51:00
4:44 PM,80.6,71.6,74,29.81,10.0,WSW,10.4,-,N/A,,Mostly Cloudy,250,2012-11-09 23:44:00
5:47 PM,77.0,71.6,83,29.82,9.0,West,8.1,-,N/A,,Mostly Cloudy,280,2012-11-10 00:47:00
6:40 PM,75.2,71.6,89,29.84,8.0,North,5.8,-,N/A,,Scattered Clouds,360,2012-11-10 01:40:00
7:43 PM,73.4,71.6,94,29.84,8.0,NNW,5.8,-,N/A,,Scattered Clouds,340,2012-11-10 02:43:00
8:40 PM,73.4,71.6,94,29.86,8.0,ENE,5.8,-,N/A,,Mostly Cloudy,70,2012-11-10 03:40:00
9:44 PM,73.4,71.6,94,29.86,4.0,ENE,5.8,-,N/A,,Clear,70,2012-11-10 04:44:00
10:45 PM,71.6,69.8,94,29.86,4.0,Calm,Calm,-,N/A,,Clear,0,2012-11-10 05:45:00
11:41 PM,71.6,69.8,94,29.86,4.0,North,6.9,-,N/A,,Clear,350,2012-11-10 06:41:00